Welcome to Northern Hawkes Bay. New Zealand.
PWS Header
      nz Flag



Hit Counter


W3C Valid W3C Valid logo


    Wairoa

Select any of the Stations below to visit their websites.










Historic Data from Weather Underground
Select the location of interest below. Wairoa is the default. Please have patience, this Data is slow to load in.
Northern Hawkes Bay Historical Data
Daily Summary for February 7, 2017 Units:  Metric    English   Both
« Previous Day
Next Day »
Daily Weekly Monthly Yearly Custom
  High: Low: Average:
Temperature: 31.0 °C 16.3 °C 23.1 °C
Dew Point: 20.3 °C 13.6 °C 16.8 °C
Humidity: 99% 43% 70%
Wind Speed: 27.0km/h 0.0km/h 9.3km/h
Wind Gust: 39.3km/h - -
Wind- - SW
Pressure: 1018.8 hPa 1010.7 hPa -
Precipitation: 4.3 mm    
Historical Graphs
 
 
Tabular Data for February 7, 2017
Time Temperature Dew Point Pressure Wind Wind Speed Wind Gust Humidity Rainfall Rate (Hourly) solar
00:03 23.2 °C 13.7 °C 1012.8 hPa NNW 7.2 km/h 12.2 km/h 55% 0.0 mm 0 W/m2
00:08 23.1 °C 13.8 °C 1012.8 hPa NNW 9.7 km/h 14.8 km/h 56% 0.0 mm 0 W/m2
00:13 23.3 °C 13.8 °C 1012.8 hPa NNW 8.7 km/h 14.8 km/h 55% 0.0 mm 0 W/m2
00:18 23.3 °C 13.8 °C 1012.8 hPa North 5.0 km/h 14.8 km/h 55% 0.0 mm 0 W/m2
00:23 23.1 °C 13.8 °C 1012.8 hPa NNW 5.0 km/h 13.4 km/h 56% 0.0 mm 0 W/m2
00:28 23.0 °C 13.8 °C 1013.1 hPa NNW 5.0 km/h 11.1 km/h 56% 0.0 mm 0 W/m2
00:33 23.0 °C 13.8 °C 1012.8 hPa NNW 8.7 km/h 14.8 km/h 56% 0.0 mm 0 W/m2
00:38 23.0 °C 13.8 °C 1012.8 hPa NNW 8.7 km/h 14.8 km/h 56% 0.0 mm 0 W/m2
00:43 22.8 °C 13.8 °C 1012.4 hPa NNW 5.0 km/h 14.8 km/h 57% 0.0 mm 0 W/m2
00:48 22.6 °C 13.9 °C 1012.8 hPa NNW 8.7 km/h 13.4 km/h 58% 0.0 mm 0 W/m2
00:53 22.9 °C 13.9 °C 1012.4 hPa NNW 13.4 km/h 18.3 km/h 57% 0.0 mm 0 W/m2
00:58 23.2 °C 13.7 °C 1012.4 hPa NNW 9.7 km/h 18.3 km/h 55% 0.0 mm 0 W/m2
01:03 23.2 °C 13.7 °C 1012.4 hPa NNW 6.1 km/h 18.3 km/h 55% 0.0 mm 0 W/m2
01:08 22.9 °C 13.7 °C 1012.4 hPa NNW 6.1 km/h 14.8 km/h 56% 0.0 mm 0 W/m2
01:13 22.8 °C 13.6 °C 1012.4 hPa NNW 7.2 km/h 12.2 km/h 56% 0.0 mm 0 W/m2
01:18 22.7 °C 13.8 °C 1012.4 hPa North 5.0 km/h 12.2 km/h 57% 0.0 mm 0 W/m2
01:23 22.6 °C 13.7 °C 1012.1 hPa North 5.0 km/h 12.2 km/h 57% 0.0 mm 0 W/m2
01:28 22.4 °C 13.7 °C 1012.1 hPa North 5.0 km/h 8.7 km/h 58% 0.0 mm 0 W/m2
01:33 22.5 °C 13.8 °C 1012.1 hPa North 5.0 km/h 12.2 km/h 58% 0.0 mm 0 W/m2
01:38 22.4 °C 13.7 °C 1012.1 hPa North 6.1 km/h 12.2 km/h 58% 0.0 mm 0 W/m2
01:43 22.3 °C 13.9 °C 1012.1 hPa North 5.0 km/h 11.1 km/h 59% 0.0 mm 0 W/m2
01:48 22.3 °C 13.9 °C 1012.1 hPa North 6.1 km/h 12.2 km/h 59% 0.0 mm 0 W/m2
01:53 22.3 °C 13.9 °C 1012.1 hPa NNE 6.1 km/h 12.2 km/h 59% 0.0 mm 0 W/m2
01:58 22.3 °C 13.9 °C 1011.7 hPa North 5.0 km/h 13.4 km/h 59% 0.0 mm 0 W/m2
02:03 22.2 °C 14.1 °C 1011.7 hPa North 7.2 km/h 13.4 km/h 60% 0.0 mm 0 W/m2
02:08 22.3 °C 14.2 °C 1011.4 hPa North 5.0 km/h 14.8 km/h 60% 0.0 mm 0 W/m2
02:13 22.3 °C 14.2 °C 1011.4 hPa NNW 9.7 km/h 14.8 km/h 60% 0.0 mm 0 W/m2
02:18 22.4 °C 14.5 °C 1011.4 hPa NNW 7.2 km/h 13.4 km/h 61% 0.0 mm 0 W/m2
02:23 22.4 °C 14.5 °C 1011.4 hPa North 8.7 km/h 13.4 km/h 61% 0.0 mm 0 W/m2
02:28 22.4 °C 14.5 °C 1011.4 hPa NNW 8.7 km/h 14.8 km/h 61% 0.0 mm 0 W/m2
02:33 22.4 °C 14.5 °C 1011.4 hPa NNW 7.2 km/h 14.8 km/h 61% 0.0 mm 0 W/m2
02:38 22.4 °C 14.5 °C 1011.4 hPa NNW 6.1 km/h 12.2 km/h 61% 0.0 mm 0 W/m2
02:43 22.5 °C 14.6 °C 1011.4 hPa NNW 7.2 km/h 13.4 km/h 61% 0.0 mm 0 W/m2
02:48 22.5 °C 14.6 °C 1011.4 hPa North 9.7 km/h 13.4 km/h 61% 0.0 mm 0 W/m2
02:53 22.5 °C 14.6 °C 1011.4 hPa North 8.7 km/h 15.8 km/h 61% 0.0 mm 0 W/m2
02:58 22.5 °C 14.6 °C 1011.4 hPa North 8.7 km/h 15.8 km/h 61% 0.0 mm 0 W/m2
03:03 22.5 °C 14.9 °C 1011.4 hPa North 6.1 km/h 15.8 km/h 62% 0.0 mm 0 W/m2
03:08 22.5 °C 14.9 °C 1011.4 hPa NNE 12.2 km/h 15.8 km/h 62% 0.0 mm 0 W/m2
03:13 22.6 °C 14.9 °C 1011.4 hPa North 9.7 km/h 15.8 km/h 62% 0.0 mm 0 W/m2
03:18 22.7 °C 15.1 °C 1011.7 hPa North 9.7 km/h 15.8 km/h 62% 0.0 mm 0 W/m2
03:23 22.8 °C 15.2 °C 1011.4 hPa NNW 11.1 km/h 17.2 km/h 62% 0.0 mm 0 W/m2
03:28 22.9 °C 15.3 °C 1011.4 hPa NNW 9.7 km/h 18.3 km/h 62% 0.0 mm 0 W/m2
03:33 23.0 °C 15.1 °C 1011.1 hPa North 7.2 km/h 19.5 km/h 61% 0.0 mm 0 W/m2
03:38 23.0 °C 15.1 °C 1011.4 hPa North 8.7 km/h 19.5 km/h 61% 0.0 mm 0 W/m2
03:43 22.9 °C 15.3 °C 1011.1 hPa NNW 7.2 km/h 15.8 km/h 62% 0.0 mm 0 W/m2
03:48 22.8 °C 15.2 °C 1011.1 hPa NNW 5.0 km/h 15.8 km/h 62% 0.0 mm 0 W/m2
03:53 22.7 °C 15.3 °C 1011.1 hPa North 6.1 km/h 14.8 km/h 63% 0.0 mm 0 W/m2
03:58 22.7 °C 15.3 °C 1011.1 hPa NNW 6.1 km/h 13.4 km/h 63% 0.0 mm 0 W/m2
04:03 22.7 °C 15.3 °C 1011.1 hPa NNW 8.7 km/h 13.4 km/h 63% 0.0 mm 0 W/m2
04:08 22.7 °C 15.3 °C 1011.1 hPa NNW 6.1 km/h 13.4 km/h 63% 0.0 mm 0 W/m2
04:13 22.6 °C 15.4 °C 1011.1 hPa North 9.7 km/h 14.8 km/h 64% 0.0 mm 0 W/m2
04:18 22.5 °C 15.4 °C 1011.1 hPa NNW 6.1 km/h 14.8 km/h 64% 0.0 mm 0 W/m2
04:23 22.4 °C 15.3 °C 1011.1 hPa NNW 8.7 km/h 14.8 km/h 64% 0.0 mm 0 W/m2
04:28 22.3 °C 14.9 °C 1011.1 hPa North 3.5 km/h 13.4 km/h 63% 0.0 mm 0 W/m2
04:33 22.2 °C 15.1 °C 1011.1 hPa North 5.0 km/h 12.2 km/h 64% 0.0 mm 0 W/m2
04:38 22.3 °C 15.2 °C 1011.1 hPa North 3.5 km/h 12.2 km/h 64% 0.0 mm 0 W/m2
04:43 22.3 °C 15.2 °C 1011.1 hPa NNW 9.7 km/h 13.4 km/h 64% 0.0 mm 0 W/m2
04:48 22.3 °C 15.2 °C 1011.1 hPa NNW 6.1 km/h 13.4 km/h 64% 0.0 mm 0 W/m2
04:53 22.3 °C 15.2 °C 1011.1 hPa NW 7.2 km/h 13.4 km/h 64% 0.0 mm 0 W/m2
04:58 22.3 °C 15.4 °C 1010.7 hPa NNW 6.1 km/h 13.4 km/h 65% 0.0 mm 0 W/m2
05:03 22.4 °C 15.5 °C 1010.7 hPa North 8.7 km/h 13.4 km/h 65% 0.0 mm 0 W/m2
05:08 22.5 °C 15.4 °C 1011.1 hPa North 7.2 km/h 15.8 km/h 64% 0.0 mm 0 W/m2
05:13 22.6 °C 15.4 °C 1011.1 hPa NNW 7.2 km/h 15.8 km/h 64% 0.0 mm 0 W/m2
05:18 22.6 °C 15.4 °C 1011.1 hPa North 6.1 km/h 14.8 km/h 64% 0.0 mm 0 W/m2
05:23 22.4 °C 15.3 °C 1011.1 hPa North 5.0 km/h 14.8 km/h 64% 0.0 mm 0 W/m2
05:28 22.3 °C 15.4 °C 1011.1 hPa North 8.7 km/h 14.8 km/h 65% 0.0 mm 0 W/m2
05:33 22.3 °C 15.4 °C 1011.4 hPa North 5.0 km/h 13.4 km/h 65% 0.0 mm 0 W/m2
05:38 22.4 °C 15.3 °C 1011.1 hPa North 9.7 km/h 13.4 km/h 64% 0.0 mm 0 W/m2
05:43 22.5 °C 15.4 °C 1011.1 hPa North 7.2 km/h 13.4 km/h 64% 0.0 mm 0 W/m2
05:48 22.6 °C 15.2 °C 1011.1 hPa North 9.7 km/h 15.8 km/h 63% 0.0 mm 0 W/m2
05:53 22.7 °C 15.3 °C 1011.1 hPa NNW 7.2 km/h 18.3 km/h 63% 0.0 mm 0 W/m2
05:58 22.8 °C 15.4 °C 1011.4 hPa North 9.7 km/h 18.3 km/h 63% 0.0 mm 0 W/m2
06:03 22.8 °C 15.4 °C 1011.4 hPa North 11.1 km/h 18.3 km/h 63% 0.0 mm 0 W/m2
06:08 22.8 °C 15.4 °C 1011.1 hPa North 9.7 km/h 18.3 km/h 63% 0.0 mm 0 W/m2
06:13 22.8 °C 15.4 °C 1011.4 hPa North 8.7 km/h 15.8 km/h 63% 0.0 mm 0 W/m2
06:18 22.8 °C 15.4 °C 1011.4 hPa North 7.2 km/h 20.9 km/h 63% 0.0 mm 0 W/m2
06:23 22.9 °C 15.5 °C 1011.4 hPa North 11.1 km/h 20.9 km/h 63% 0.0 mm 0 W/m2
06:28 23.0 °C 15.6 °C 1011.4 hPa NNW 8.7 km/h 18.3 km/h 63% 0.0 mm 1 W/m2
06:33 23.1 °C 15.7 °C 1011.7 hPa NNW 5.0 km/h 18.3 km/h 63% 0.0 mm 2 W/m2
06:38 23.1 °C 15.7 °C 1011.4 hPa North 9.7 km/h 15.8 km/h 63% 0.0 mm 5 W/m2
06:43 23.2 °C 15.8 °C 1011.7 hPa NNE 8.7 km/h 15.8 km/h 63% 0.0 mm 9 W/m2
06:48 23.2 °C 15.8 °C 1012.1 hPa NNE 8.7 km/h 15.8 km/h 63% 0.0 mm 12 W/m2
06:53 23.2 °C 16.1 °C 1012.1 hPa North 3.5 km/h 13.4 km/h 64% 0.0 mm 18 W/m2
06:58 23.1 °C 15.9 °C 1012.1 hPa NNW 2.6 km/h 13.4 km/h 64% 0.0 mm 24 W/m2
07:03 23.1 °C 16.2 °C 1012.1 hPa NNW 2.6 km/h 9.7 km/h 65% 0.0 mm 30 W/m2
07:08 23.0 °C 16.1 °C 1012.1 hPa Calm   7.2 km/h 65% 0.0 mm 36 W/m2
07:13 22.8 °C 15.7 °C 1012.1 hPa Calm   6.1 km/h 64% 0.0 mm 48 W/m2
07:18 22.9 °C 16.0 °C 1012.1 hPa Calm   2.6 km/h 65% 0.0 mm 47 W/m2
07:23 23.0 °C 16.3 °C 1012.4 hPa NE 1.1 km/h 3.5 km/h 66% 0.0 mm 52 W/m2
07:28 23.2 °C 16.5 °C 1012.4 hPa Calm   3.5 km/h 66% 0.0 mm 57 W/m2
07:33 23.3 °C 16.6 °C 1012.4 hPa Calm   3.5 km/h 66% 0.0 mm 64 W/m2
07:38 23.4 °C 16.4 °C 1012.4 hPa Calm     65% 0.0 mm 72 W/m2
07:43 23.6 °C 16.7 °C 1012.4 hPa Calm   3.5 km/h 65% 0.0 mm 84 W/m2
07:48 23.7 °C 16.7 °C 1012.8 hPa Calm   3.5 km/h 65% 0.0 mm 89 W/m2
07:53 23.8 °C 16.8 °C 1012.8 hPa Calm   3.5 km/h 65% 0.0 mm 96 W/m2
07:58 24.0 °C 16.8 °C 1012.8 hPa NNE 5.0 km/h 6.1 km/h 64% 0.0 mm 118 W/m2
08:03 24.2 °C 17.0 °C 1012.8 hPa North 2.6 km/h 7.2 km/h 64% 0.0 mm 98 W/m2
08:08 24.4 °C 16.9 °C 1012.8 hPa North 3.5 km/h 8.7 km/h 63% 0.0 mm 100 W/m2
08:13 24.7 °C 17.2 °C 1012.8 hPa Calm   8.7 km/h 63% 0.0 mm 115 W/m2
08:18 25.1 °C 17.1 °C 1012.8 hPa Calm   6.1 km/h 61% 0.0 mm 104 W/m2
08:23 25.4 °C 17.1 °C 1012.8 hPa Calm   2.6 km/h 60% 0.0 mm 124 W/m2
08:28 25.8 °C 16.9 °C 1012.8 hPa NE 1.1 km/h 5.0 km/h 58% 0.0 mm 132 W/m2
08:33 25.9 °C 16.8 °C 1012.8 hPa Calm   5.0 km/h 57% 0.0 mm 119 W/m2
08:38 26.0 °C 16.6 °C 1013.1 hPa North 2.6 km/h 6.1 km/h 56% 0.0 mm 125 W/m2
08:43 26.2 °C 17.1 °C 1013.1 hPa NNW 1.1 km/h 6.1 km/h 57% 0.0 mm 295 W/m2
08:48 27.3 °C 16.9 °C 1013.1 hPa NNW 5.0 km/h 9.7 km/h 53% 0.0 mm 340 W/m2
08:53 27.8 °C 17.1 °C 1013.1 hPa North 5.0 km/h 9.7 km/h 52% 0.0 mm 334 W/m2
08:58 28.3 °C 16.9 °C 1013.1 hPa NNE 3.5 km/h 9.7 km/h 50% 0.0 mm 310 W/m2
09:03 28.6 °C 16.9 °C 1013.4 hPa NNE 2.6 km/h 9.7 km/h 49% 0.0 mm 389 W/m2
09:08 29.6 °C 17.1 °C 1013.4 hPa NNE 7.2 km/h 12.2 km/h 47% 0.0 mm 424 W/m2
09:13 29.6 °C 17.1 °C 1013.4 hPa NE 11.1 km/h 13.4 km/h 47% 0.0 mm 436 W/m2
09:18 29.2 °C 17.1 °C 1013.4 hPa NNE 5.0 km/h 13.4 km/h 48% 0.0 mm 395 W/m2
09:23 29.6 °C 17.1 °C 1013.4 hPa NNE 1.1 km/h 12.2 km/h 47% 0.0 mm 445 W/m2
09:28 29.9 °C 17.4 °C 1013.4 hPa NNE 3.5 km/h 9.7 km/h 47% 0.0 mm 476 W/m2
09:33 29.8 °C 17.3 °C 1013.4 hPa NNW 5.0 km/h 9.7 km/h 47% 0.0 mm 525 W/m2
09:38 30.4 °C 17.5 °C 1013.8 hPa NNW 6.1 km/h 11.1 km/h 46% 0.0 mm 601 W/m2
09:43 30.3 °C 17.1 °C 1013.8 hPa NNW 6.1 km/h 11.1 km/h 45% 0.0 mm 610 W/m2
09:48 30.7 °C 17.4 °C 1013.4 hPa North 6.1 km/h 11.1 km/h 45% 0.0 mm 586 W/m2
09:53 31.0 °C 17.0 °C 1013.4 hPa NW 7.2 km/h 14.8 km/h 43% 0.0 mm 577 W/m2
09:58 30.4 °C 17.2 °C 1013.8 hPa SSW 5.0 km/h 14.8 km/h 45% 0.0 mm 586 W/m2
10:03 30.4 °C 17.2 °C 1013.8 hPa SSW 8.7 km/h 14.8 km/h 45% 0.0 mm 601 W/m2
10:08 30.6 °C 17.3 °C 1013.8 hPa SW 6.1 km/h 14.8 km/h 45% 0.0 mm 614 W/m2
10:13 30.8 °C 17.2 °C 1013.8 hPa SW 7.2 km/h 17.2 km/h 44% 0.0 mm 626 W/m2
10:19 30.8 °C 17.2 °C 1013.8 hPa WSW 9.7 km/h 17.2 km/h 44% 0.0 mm 647 W/m2
10:24 30.6 °C 17.0 °C 1013.8 hPa SW 12.2 km/h 15.8 km/h 44% 0.0 mm 669 W/m2
10:29 30.7 °C 17.1 °C 1013.8 hPa SSW 7.2 km/h 15.8 km/h 44% 0.0 mm 676 W/m2
10:34 31.0 °C 17.0 °C 1013.8 hPa SSW 13.4 km/h 17.2 km/h 43% 0.0 mm 691 W/m2
10:39 30.9 °C 17.3 °C 1013.8 hPa SSW 11.1 km/h 17.2 km/h 44% 0.0 mm 711 W/m2
10:44 30.8 °C 17.2 °C 1013.8 hPa SW 11.1 km/h 17.2 km/h 44% 0.0 mm 729 W/m2
10:49 30.7 °C 17.1 °C 1013.4 hPa SW 9.7 km/h 20.9 km/h 44% 0.0 mm 748 W/m2
10:54 30.5 °C 17.6 °C 1013.4 hPa SSW 11.1 km/h 20.9 km/h 46% 0.0 mm 760 W/m2
10:59 29.5 °C 17.7 °C 1013.8 hPa South 7.2 km/h 15.8 km/h 49% 0.0 mm 776 W/m2
11:04 28.9 °C 16.8 °C 1013.8 hPa South 13.4 km/h 17.2 km/h 48% 0.0 mm 810 W/m2
11:09 29.1 °C 16.7 °C 1013.4 hPa South 12.2 km/h 19.5 km/h 47% 0.0 mm 827 W/m2
11:14 29.2 °C 17.1 °C 1013.4 hPa South 13.4 km/h 19.5 km/h 48% 0.0 mm 843 W/m2
11:19 29.4 °C 16.9 °C 1013.8 hPa South 11.1 km/h 17.2 km/h 47% 0.0 mm 867 W/m2
11:35 29.0 °C 16.2 °C 1013.8 hPa South 8.7 km/h 17.2 km/h 46% 0.0 mm 913 W/m2
11:40 29.0 °C 16.6 °C 1013.4 hPa South 7.2 km/h 17.2 km/h 47% 0.0 mm 923 W/m2
11:45 29.5 °C 16.7 °C 1013.4 hPa SSW 8.7 km/h 17.2 km/h 46% 0.0 mm 935 W/m2
11:50 29.8 °C 16.9 °C 1013.4 hPa SSW 11.1 km/h 14.8 km/h 46% 0.0 mm 949 W/m2
11:55 30.0 °C 16.8 °C 1013.4 hPa South 5.0 km/h 14.8 km/h 45% 0.0 mm 957 W/m2
12:00 29.9 °C 16.7 °C 1013.4 hPa South 11.1 km/h 14.8 km/h 45% 0.0 mm 967 W/m2
12:05 29.7 °C 16.9 °C 1013.4 hPa South 11.1 km/h 13.4 km/h 46% 0.0 mm 972 W/m2
12:10 29.8 °C 16.6 °C 1013.4 hPa South 9.7 km/h 14.8 km/h 45% 0.0 mm 985 W/m2
12:15 30.1 °C 16.6 °C 1013.4 hPa South 8.7 km/h 14.8 km/h 44% 0.0 mm 992 W/m2
12:20 30.4 °C 17.2 °C 1013.4 hPa SSW 9.7 km/h 14.8 km/h 45% 0.0 mm 998 W/m2
12:25 29.8 °C 16.9 °C 1013.4 hPa South 6.1 km/h 14.8 km/h 46% 0.0 mm 1007 W/m2
12:30 30.1 °C 16.6 °C 1013.4 hPa South 8.7 km/h 13.4 km/h 44% 0.0 mm 998 W/m2
12:35 30.1 °C 16.9 °C 1013.4 hPa South 7.2 km/h 13.4 km/h 45% 0.0 mm 848 W/m2
12:40 30.0 °C 16.8 °C 1013.4 hPa South 11.1 km/h 14.8 km/h 45% 0.0 mm 1036 W/m2
12:45 30.1 °C 16.9 °C 1013.4 hPa South 9.7 km/h 18.3 km/h 45% 0.0 mm 1052 W/m2
12:50 30.1 °C 17.2 °C 1013.1 hPa South 8.7 km/h 19.5 km/h 46% 0.0 mm 1050 W/m2
12:55 30.4 °C 17.5 °C 1013.4 hPa SSW 12.2 km/h 19.5 km/h 46% 0.0 mm 1059 W/m2
13:00 30.5 °C 17.6 °C 1012.8 hPa SSW 12.2 km/h 18.3 km/h 46% 0.0 mm 1099 W/m2
13:05 30.4 °C 17.8 °C 1013.1 hPa South 13.4 km/h 18.3 km/h 47% 0.0 mm 1067 W/m2
13:10 30.1 °C 17.6 °C 1013.1 hPa South 8.7 km/h 18.3 km/h 47% 0.0 mm 1064 W/m2
13:15 30.2 °C 17.7 °C 1013.1 hPa South 11.1 km/h 18.3 km/h 47% 0.0 mm 1064 W/m2
13:20 30.4 °C 17.5 °C 1013.1 hPa South 9.7 km/h 17.2 km/h 46% 0.0 mm 1055 W/m2
13:25 30.5 °C 17.3 °C 1013.1 hPa South 12.2 km/h 20.9 km/h 45% 0.0 mm 1044 W/m2
13:30 30.7 °C 17.1 °C 1013.1 hPa South 7.2 km/h 20.9 km/h 44% 0.0 mm 1023 W/m2
13:35 29.8 °C 19.5 °C 1013.1 hPa South 12.2 km/h 21.9 km/h 54% 0.0 mm 1007 W/m2
13:40 29.2 °C 18.4 °C 1013.1 hPa SSE 8.7 km/h 21.9 km/h 52% 0.0 mm 987 W/m2
13:45 29.2 °C 18.7 °C 1013.1 hPa SSE 6.1 km/h 15.8 km/h 53% 0.0 mm 984 W/m2
13:50 28.5 °C 18.6 °C 1013.4 hPa SE 14.8 km/h 23.3 km/h 55% 0.0 mm 1028 W/m2
13:55 28.2 °C 18.6 °C 1013.4 hPa SE 11.1 km/h 23.3 km/h 56% 0.0 mm 411 W/m2
14:00 27.2 °C 17.9 °C 1013.4 hPa SSE 11.1 km/h 19.5 km/h 57% 0.0 mm 301 W/m2
14:05 26.8 °C 18.7 °C 1013.4 hPa SE 8.7 km/h 19.5 km/h 61% 0.0 mm 349 W/m2
14:10 26.1 °C 18.8 °C 1013.4 hPa SE 13.4 km/h 21.9 km/h 64% 0.0 mm 333 W/m2
14:15 25.5 °C 18.7 °C 1013.4 hPa SE 8.7 km/h 21.9 km/h 66% 0.0 mm 312 W/m2
14:33 25.6 °C 17.8 °C 1013.4 hPa SE 8.7 km/h 20.9 km/h 62% 0.0 mm 280 W/m2
14:38 25.9 °C 18.3 °C 1013.4 hPa SE 13.4 km/h 24.5 km/h 63% 0.0 mm 239 W/m2
14:43 25.8 °C 18.0 °C 1013.8 hPa SE 8.7 km/h 24.5 km/h 62% 0.0 mm 229 W/m2
14:48 25.6 °C 18.3 °C 1014.1 hPa SE 7.2 km/h 24.5 km/h 64% 0.0 mm 247 W/m2
14:53 25.0 °C 18.4 °C 1014.4 hPa SE 5.0 km/h 21.9 km/h 67% 0.0 mm 307 W/m2
14:58 24.9 °C 19.1 °C 1014.4 hPa SSE 12.2 km/h 24.5 km/h 70% 0.0 mm 395 W/m2
15:03 24.8 °C 19.4 °C 1014.4 hPa SSE 13.4 km/h 24.5 km/h 72% 0.0 mm 420 W/m2
15:08 24.9 °C 19.6 °C 1014.4 hPa SE 14.8 km/h 24.5 km/h 72% 0.0 mm 379 W/m2
15:13 24.9 °C 19.1 °C 1014.4 hPa SSE 5.0 km/h 24.5 km/h 70% 0.0 mm 365 W/m2
15:18 24.6 °C 19.2 °C 1014.4 hPa SSE 9.7 km/h 24.5 km/h 72% 0.0 mm 375 W/m2
15:23 24.4 °C 19.3 °C 1014.8 hPa South 14.8 km/h 19.5 km/h 73% 0.0 mm 291 W/m2
15:28 23.9 °C 19.2 °C 1014.8 hPa SSW 17.2 km/h 21.9 km/h 75% 0.0 mm 257 W/m2
15:33 23.9 °C 19.7 °C 1015.1 hPa SSW 14.8 km/h 21.9 km/h 77% 0.0 mm 239 W/m2
15:38 23.6 °C 19.6 °C 1015.1 hPa SSW 18.3 km/h 23.3 km/h 78% 0.0 mm 238 W/m2
15:43 23.3 °C 19.7 °C 1015.1 hPa SSW 11.1 km/h 23.3 km/h 80% 0.0 mm 307 W/m2
15:48 23.4 °C 20.0 °C 1015.1 hPa SSW 8.7 km/h 21.9 km/h 81% 0.0 mm 443 W/m2
15:53 24.0 °C 20.3 °C 1015.1 hPa SSW 13.4 km/h 21.9 km/h 80% 0.0 mm 699 W/m2
15:58 23.7 °C 19.9 °C 1015.1 hPa South 14.8 km/h 25.6 km/h 79% 0.0 mm 430 W/m2
16:03 23.4 °C 20.0 °C 1015.1 hPa South 14.8 km/h 25.6 km/h 81% 0.0 mm 279 W/m2
16:08 23.3 °C 20.1 °C 1015.1 hPa SSW 11.1 km/h 24.5 km/h 82% 0.0 mm 187 W/m2
16:13 22.7 °C 19.5 °C 1015.5 hPa SSW 12.2 km/h 24.5 km/h 82% 0.0 mm 166 W/m2
16:18 22.4 °C 19.2 °C 1015.5 hPa South 17.2 km/h 23.3 km/h 82% 0.0 mm 171 W/m2
16:23 22.1 °C 19.1 °C 1015.5 hPa South 9.7 km/h 24.5 km/h 83% 0.0 mm 164 W/m2
16:28 21.9 °C 19.1 °C 1015.5 hPa South 12.2 km/h 24.5 km/h 84% 0.0 mm 146 W/m2
16:33 21.8 °C 19.4 °C 1015.5 hPa South 12.2 km/h 23.3 km/h 86% 0.0 mm 109 W/m2
16:38 21.7 °C 19.3 °C 1015.5 hPa South 9.7 km/h 23.3 km/h 86% 0.0 mm 105 W/m2
16:43 21.7 °C 19.4 °C 1015.8 hPa South 8.7 km/h 23.3 km/h 87% 0.0 mm 100 W/m2
16:48 21.7 °C 19.3 °C 1015.8 hPa SSW 8.7 km/h 18.3 km/h 86% 0.0 mm 86 W/m2
16:53 21.5 °C 19.3 °C 1015.8 hPa SSW 7.2 km/h 20.9 km/h 87% 0.0 mm 78 W/m2
16:58 21.4 °C 19.3 °C 1015.8 hPa SSW 7.2 km/h 20.9 km/h 88% 0.0 mm 81 W/m2
17:03 21.3 °C 19.1 °C 1015.8 hPa SSW 8.7 km/h 18.3 km/h 87% 0.0 mm 79 W/m2
17:08 21.3 °C 19.3 °C 1016.1 hPa South 11.1 km/h 18.3 km/h 88% 0.0 mm 65 W/m2
17:13 21.3 °C 19.3 °C 1016.1 hPa South 13.4 km/h 18.3 km/h 88% 0.0 mm 54 W/m2
17:18 21.0 °C 18.9 °C 1016.1 hPa South 14.8 km/h 20.9 km/h 88% 0.0 mm 49 W/m2
17:23 20.9 °C 19.2 °C 1015.8 hPa South 9.7 km/h 20.9 km/h 90% 0.0 mm 43 W/m2
17:28 20.8 °C 18.9 °C 1016.1 hPa SSW 14.8 km/h 27.0 km/h 89% 0.0 mm 41 W/m2
17:33 20.4 °C 18.9 °C 1016.1 hPa SSW 14.8 km/h 27.0 km/h 91% 0.0 mm 34 W/m2
17:38 20.1 °C 18.8 °C 1016.1 hPa SSW 15.8 km/h 24.5 km/h 92% 0.0 mm 29 W/m2
17:43 19.8 °C 18.8 °C 1016.1 hPa SSW 13.4 km/h 24.5 km/h 94% 0.0 mm 28 W/m2
17:48 19.6 °C 18.8 °C 1016.1 hPa SSW 13.4 km/h 23.3 km/h 95% 0.0 mm 22 W/m2
17:53 19.4 °C 18.6 °C 1016.1 hPa SSW 14.8 km/h 21.9 km/h 95% 0.0 mm 24 W/m2
17:58 19.3 °C 18.7 °C 1016.1 hPa SSW 12.2 km/h 23.3 km/h 96% 0.0 mm 19 W/m2
18:03 19.3 °C 18.7 °C 1016.1 hPa SSW 9.7 km/h 23.3 km/h 96% 0.0 mm 21 W/m2
18:08 19.2 °C 18.7 °C 1016.1 hPa SSW 9.7 km/h 20.9 km/h 97% 0.0 mm 18 W/m2
18:13 19.1 °C 18.6 °C 1016.1 hPa SW 6.1 km/h 20.9 km/h 97% 0.0 mm 23 W/m2
18:18 19.0 °C 18.6 °C 1016.5 hPa SW 12.2 km/h 20.9 km/h 97% 0.0 mm 24 W/m2
18:23 19.0 °C 18.6 °C 1016.5 hPa SW 9.7 km/h 18.3 km/h 97% 0.0 mm 23 W/m2
18:28 18.8 °C 18.7 °C 1016.5 hPa SSW 14.8 km/h 24.5 km/h 99% 0.0 mm 16 W/m2
18:33 18.8 °C 18.5 °C 1016.5 hPa SSW 11.1 km/h 24.5 km/h 98% 0.0 mm 16 W/m2
18:38 18.8 °C 18.5 °C 1016.5 hPa SSW 18.3 km/h 24.5 km/h 98% 0.0 mm 14 W/m2
18:43 18.7 °C 18.4 °C 1016.5 hPa SSW 13.4 km/h 24.5 km/h 98% 0.0 mm 14 W/m2
18:48 18.7 °C 18.4 °C 1016.5 hPa SSW 15.8 km/h 24.5 km/h 98% 0.0 mm 12 W/m2
18:53 18.5 °C 18.2 °C 1016.5 hPa SSW 12.2 km/h 27.0 km/h 98% 0.0 mm 13 W/m2
18:58 18.5 °C 18.2 °C 1016.8 hPa SSW 9.7 km/h 27.0 km/h 98% 0.0 mm 15 W/m2
19:03 18.5 °C 18.2 °C 1016.8 hPa SSW 13.4 km/h 19.5 km/h 98% 0.0 mm 14 W/m2
19:08 18.4 °C 18.1 °C 1016.8 hPa SW 13.4 km/h 20.9 km/h 98% 0.0 mm 12 W/m2
19:13 18.4 °C 17.9 °C 1016.8 hPa SW 11.1 km/h 21.9 km/h 97% 0.0 mm 13 W/m2
19:18 18.3 °C 18.0 °C 1016.8 hPa SSW 15.8 km/h 21.9 km/h 98% 0.0 mm 13 W/m2
19:23 18.3 °C 18.0 °C 1016.8 hPa SSW 14.8 km/h 21.9 km/h 98% 0.0 mm 11 W/m2
19:28 18.2 °C 17.9 °C 1017.2 hPa SSW 11.1 km/h 23.3 km/h 98% 0.0 mm 11 W/m2
19:33 18.1 °C 17.8 °C 1016.8 hPa SSW 18.3 km/h 23.3 km/h 98% 0.0 mm 9 W/m2
19:38 18.0 °C 17.7 °C 1016.8 hPa SW 11.1 km/h 21.9 km/h 98% 0.0 mm 5 W/m2
19:43 18.0 °C 17.8 °C 1016.8 hPa SW 14.8 km/h 21.9 km/h 99% 0.0 mm 4 W/m2
19:48 18.0 °C 17.8 °C 1016.8 hPa SSW 7.2 km/h 18.3 km/h 99% 0.0 mm 2 W/m2
19:53 18.1 °C 17.9 °C 1016.8 hPa SSW 9.7 km/h 18.3 km/h 99% 0.0 mm 1 W/m2
19:58 18.0 °C 17.8 °C 1017.2 hPa SW 11.1 km/h 19.5 km/h 99% 0.0 mm 0 W/m2
20:03 18.0 °C 17.8 °C 1017.2 hPa SSW 17.2 km/h 23.3 km/h 99% 0.0 mm 0 W/m2
20:08 17.9 °C 17.4 °C 1017.2 hPa SSW 12.2 km/h 23.3 km/h 97% 0.0 mm 0 W/m2
20:13 17.9 °C 17.4 °C 1017.2 hPa South 8.7 km/h 21.9 km/h 97% 0.0 mm 0 W/m2
20:18 17.9 °C 17.4 °C 1017.2 hPa SSW 11.1 km/h 20.9 km/h 97% 0.0 mm 0 W/m2
20:23 17.8 °C 17.3 °C 1017.5 hPa SSW 14.8 km/h 20.9 km/h 97% 0.0 mm 0 W/m2
20:28 17.8 °C 17.3 °C 1017.2 hPa South 9.7 km/h 20.9 km/h 97% 0.0 mm 0 W/m2
20:33 17.8 °C 17.3 °C 1017.5 hPa SSW 9.7 km/h 20.9 km/h 97% 0.0 mm 0 W/m2
20:38 17.8 °C 17.3 °C 1017.2 hPa SSW 9.7 km/h 18.3 km/h 97% 0.0 mm 0 W/m2
20:43 17.8 °C 17.3 °C 1017.2 hPa SSW 9.7 km/h 20.9 km/h 97% 0.0 mm 0 W/m2
20:48 17.8 °C 17.3 °C 1017.5 hPa SSW 14.8 km/h 21.9 km/h 97% 0.0 mm 0 W/m2
20:53 17.7 °C 17.2 °C 1017.5 hPa SW 8.7 km/h 21.9 km/h 97% 0.0 mm 0 W/m2
20:58 17.7 °C 17.2 °C 1017.5 hPa SSW 8.7 km/h 19.5 km/h 97% 0.0 mm 0 W/m2
21:03 17.7 °C 17.2 °C 1017.5 hPa SSW 12.2 km/h 19.5 km/h 97% 0.0 mm 0 W/m2
21:08 17.7 °C 17.2 °C 1017.8 hPa SSW 12.2 km/h 19.5 km/h 97% 0.0 mm 0 W/m2
21:13 17.6 °C 17.1 °C 1017.8 hPa SSW 12.2 km/h 19.5 km/h 97% 0.0 mm 0 W/m2
21:18 17.5 °C 17.1 °C 1017.5 hPa SW 12.2 km/h 21.9 km/h 97% 0.3 mm 0 W/m2
21:23 17.5 °C 17.1 °C 1017.8 hPa SW 11.1 km/h 21.9 km/h 97% 0.3 mm 0 W/m2
21:28 17.4 °C 16.9 °C 1017.8 hPa SW 7.2 km/h 19.5 km/h 97% 0.3 mm 0 W/m2
21:33 17.3 °C 16.8 °C 1017.8 hPa SW 14.8 km/h 21.9 km/h 97% 0.5 mm 0 W/m2
21:38 17.3 °C 16.8 °C 1018.2 hPa SW 7.2 km/h 21.9 km/h 97% 0.5 mm 0 W/m2
21:43 17.4 °C 16.9 °C 1018.2 hPa SW 15.8 km/h 20.9 km/h 97% 1.0 mm 0 W/m2
21:48 17.4 °C 16.9 °C 1018.2 hPa SW 11.1 km/h 19.5 km/h 97% 1.0 mm 0 W/m2
21:53 17.3 °C 16.8 °C 1018.5 hPa SW 17.2 km/h 25.6 km/h 97% 1.0 mm 0 W/m2
21:58 17.2 °C 16.7 °C 1018.5 hPa SW 13.4 km/h 27.0 km/h 97% 1.3 mm 0 W/m2
22:03 17.1 °C 16.6 °C 1018.5 hPa SW 13.4 km/h 28.0 km/h 97% 1.3 mm 0 W/m2
22:08 17.0 °C 16.6 °C 1018.5 hPa SW 20.9 km/h 28.0 km/h 97% 1.5 mm 0 W/m2
22:13 16.8 °C 16.5 °C 1018.5 hPa SW 15.8 km/h 28.0 km/h 98% 1.5 mm 0 W/m2
22:18 17.0 °C 16.6 °C 1018.8 hPa SW 18.3 km/h 27.0 km/h 97% 1.3 mm 0 W/m2
22:23 16.9 °C 16.6 °C 1018.5 hPa SW 27.0 km/h 39.3 km/h 98% 1.5 mm 0 W/m2
22:28 16.8 °C 16.5 °C 1018.8 hPa SW 21.9 km/h 39.3 km/h 98% 1.5 mm 0 W/m2
22:33 16.7 °C 16.4 °C 1018.8 hPa SW 18.3 km/h 31.7 km/h 98% 1.5 mm 0 W/m2
22:38 16.6 °C 16.3 °C 1018.8 hPa SW 20.9 km/h 31.7 km/h 98% 1.5 mm 0 W/m2
22:43 16.7 °C 16.4 °C 1018.8 hPa SW 14.8 km/h 31.7 km/h 98% 1.5 mm 0 W/m2
22:48 16.8 °C 16.5 °C 1018.8 hPa SW 20.9 km/h 31.7 km/h 98% 1.5 mm 0 W/m2
22:53 16.7 °C 16.4 °C 1018.8 hPa SW 15.8 km/h 30.6 km/h 98% 1.5 mm 0 W/m2
22:58 16.8 °C 16.5 °C 1018.8 hPa SW 14.8 km/h 28.0 km/h 98% 1.5 mm 0 W/m2
23:03 16.7 °C 16.4 °C 1018.8 hPa SW 13.4 km/h 30.6 km/h 98% 1.5 mm 0 W/m2
23:08 16.7 °C 16.4 °C 1018.8 hPa SW 11.1 km/h 30.6 km/h 98% 1.5 mm 0 W/m2
23:13 16.6 °C 16.3 °C 1018.8 hPa SW 15.8 km/h 29.4 km/h 98% 1.8 mm 0 W/m2
23:18 16.5 °C 16.2 °C 1018.8 hPa SW 18.3 km/h 30.6 km/h 98% 2.0 mm 0 W/m2
23:23 16.5 °C 16.2 °C 1018.8 hPa SW 12.2 km/h 30.6 km/h 98% 1.8 mm 0 W/m2
23:28 16.5 °C 16.2 °C 1018.8 hPa WSW 13.4 km/h 30.6 km/h 98% 2.0 mm 0 W/m2
23:33 16.4 °C 16.1 °C 1018.8 hPa WSW 8.7 km/h 21.9 km/h 98% 1.8 mm 0 W/m2
23:38 16.4 °C 16.1 °C 1018.8 hPa WSW 11.1 km/h 18.3 km/h 98% 1.8 mm 0 W/m2
23:43 16.4 °C 16.1 °C 1018.8 hPa WSW 7.2 km/h 18.3 km/h 98% 1.5 mm 0 W/m2
23:48 16.3 °C 16.0 °C 1018.8 hPa SW 6.1 km/h 17.2 km/h 98% 1.5 mm 0 W/m2
23:53 16.3 °C 16.0 °C 1018.8 hPa SW 6.1 km/h 15.8 km/h 98% 1.8 mm 0 W/m2
23:58 16.4 °C 16.1 °C 1018.8 hPa WSW 9.7 km/h 17.2 km/h 98% 1.5 mm 0 W/m2
Northern Hawkes Bay. New Zealand Historic Data
Compliments of Weather Underground - 2 mb